| time (UTC) | temp F | wind direction | speed MPH | gust MPH | rain 1hr in | rain 24hr in | rain mn in | humidity % | barometer mb |
| 20260504000927 | 50 | 256 | 1.0 | 7.0 | 0.00 | 0.00 | 0.00 | 50 | 1014.3 |
| 20260503235126 | 49 | 274 | 1.0 | 4.0 | 0.00 | 0.00 | 0.00 | 51 | 1014.4 |
| 20260503234226 | 50 | 0 | 0.0 | 3.0 | 0.00 | 0.00 | 0.00 | 53 | 1014.5 |
| 20260503233325 | 50 | 0 | 0.0 | 3.0 | 0.00 | 0.00 | 0.00 | 52 | 1014.5 |
| 20260503232425 | 51 | 247 | 2.0 | 7.0 | 0.00 | 0.00 | 0.00 | 48 | 1014.7 |
| 20260503231526 | 51 | 202 | 1.0 | 7.0 | 0.00 | 0.00 | 0.00 | 52 | 1014.7 |
| 20260503230625 | 51 | 223 | 3.0 | 9.0 | 0.00 | 0.00 | 0.00 | 51 | 1014.7 |
| 20260503223926 | 51 | 0 | 0.0 | 4.0 | 0.00 | 0.00 | 0.00 | 51 | 1015.0 |
| 20260503223026 | 51 | 261 | 2.0 | 11.0 | 0.00 | 0.00 | 0.00 | 48 | 1015.1 |
| 20260503222125 | 53 | 261 | 2.0 | 10.0 | 0.00 | 0.00 | 0.00 | 50 | 1015.1 |
| 20260503221225 | 53 | 249 | 1.0 | 5.0 | 0.00 | 0.00 | 0.00 | 46 | 1015.1 |
| 20260503215425 | 53 | 253 | 1.0 | 9.0 | 0.00 | 0.00 | 0.00 | 47 | 1015.3 |
| 20260503214525 | 52 | 224 | 3.0 | 11.0 | 0.00 | 0.00 | 0.00 | 48 | 1015.4 |
| 20260503213625 | 52 | 221 | 1.0 | 11.0 | 0.00 | 0.00 | 0.00 | 48 | 1015.2 |
| 20260503212725 | 52 | 281 | 1.0 | 5.0 | 0.00 | 0.00 | 0.00 | 49 | 1015.4 |
| 20260503211825 | 52 | 269 | 1.0 | 6.0 | 0.00 | 0.00 | 0.00 | 49 | 1015.4 |
| 20260503210926 | 53 | 264 | 1.0 | 7.0 | 0.00 | 0.00 | 0.00 | 49 | 1015.4 |
| 20260503210025 | 52 | 239 | 1.0 | 6.0 | 0.00 | 0.00 | 0.00 | 48 | 1015.4 |
| 20260503205126 | 51 | 254 | 3.0 | 10.0 | 0.00 | 0.00 | 0.00 | 51 | 1015.5 |
| 20260503203326 | 50 | 252 | 2.0 | 9.0 | 0.00 | 0.00 | 0.00 | 53 | 1015.4 |
| 20260503202426 | 49 | 270 | 1.0 | 6.0 | 0.00 | 0.00 | 0.00 | 52 | 1015.4 |
| 20260503201526 | 49 | 267 | 1.0 | 6.0 | 0.00 | 0.00 | 0.00 | 54 | 1015.4 |
| 20260503200626 | 50 | 245 | 1.0 | 6.0 | 0.00 | 0.00 | 0.00 | 54 | 1015.4 |
| 20260503195726 | 50 | 250 | 2.0 | 7.0 | 0.00 | 0.00 | 0.00 | 53 | 1015.3 |
| 20260503194825 | 50 | 0 | 0.0 | 5.0 | 0.00 | 0.00 | 0.00 | 53 | 1015.3 |
| 20260503193925 | 49 | 215 | 1.0 | 6.0 | 0.00 | 0.00 | 0.00 | 53 | 1015.3 |
| 20260503192126 | 48 | 231 | 3.0 | 7.0 | 0.00 | 0.00 | 0.00 | 55 | 1015.4 |
| 20260503191226 | 47 | 226 | 2.0 | 7.0 | 0.00 | 0.00 | 0.00 | 56 | 1015.4 |
| 20260503185426 | 46 | 177 | 1.0 | 4.0 | 0.00 | 0.00 | 0.00 | 58 | 1015.4 |
| 20260503184526 | 45 | 0 | 0.0 | 3.0 | 0.00 | 0.00 | 0.00 | 60 | 1015.3 |
| 20260503183626 | 44 | 231 | 1.0 | 4.0 | 0.00 | 0.00 | 0.00 | 62 | 1015.4 |
| 20260503182726 | 44 | 0 | 0.0 | 2.0 | 0.00 | 0.00 | 0.00 | 64 | 1015.3 |
| 20260503181826 | 43 | 0 | 0.0 | 1.0 | 0.00 | 0.00 | 0.00 | 64 | 1015.3 |
| 20260503180926 | 42 | 0 | 0.0 | 0.0 | 0.00 | 0.00 | 0.00 | 67 | 1015.2 |
| 20260503180026 | 42 | 0 | 0.0 | 0.0 | 0.00 | 0.00 | 0.00 | 71 | 1015.1 |
| 20260503174226 | 40 | 0 | 0.0 | 0.0 | 0.00 | 0.00 | 0.00 | 75 | 1015.2 |
| 20260503173326 | 39 | 0 | 0.0 | 0.0 | 0.00 | 0.00 | 0.00 | 78 | 1015.1 |
| 20260503171526 | 37 | 0 | 0.0 | 1.0 | 0.00 | 0.00 | 0.00 | 82 | 1015.3 |
| 20260503170626 | 36 | 0 | 0.0 | 1.0 | 0.00 | 0.00 | 0.00 | 85 | 1015.3 |
| 20260503150926 | 30 | 0 | 0.0 | 0.0 | 0.00 | 0.00 | 0.00 | 93 | 1014.8 |
| 20260503081526 | 32 | 0 | 0.0 | 0.0 | 0.00 | 0.00 | 0.00 | 86 | 1012.3 |
| 20260503080626 | 32 | 0 | 0.0 | 0.0 | 0.00 | 0.00 | 0.00 | 85 | 1012.3 |
| 20260503072126 | 34 | 0 | 0.0 | 0.0 | 0.00 | 0.00 | 0.00 | 83 | 1012.1 |
| 20260503070326 | 35 | 0 | 0.0 | 0.0 | 0.00 | 0.00 | 0.00 | 81 | 1011.9 |
| 20260503055126 | 40 | 0 | 0.0 | 0.0 | 0.00 | 0.00 | 0.00 | 73 | 1011.3 |
| 20260503053326 | 41 | 0 | 0.0 | 3.0 | 0.00 | 0.00 | 0.00 | 71 | 1011.3 |
| 20260503052426 | 41 | 0 | 0.0 | 0.0 | 0.00 | 0.00 | 0.00 | 70 | 1011.2 |
| 20260503051526 | 42 | 289 | 1.0 | 8.0 | 0.00 | 0.00 | 0.00 | 70 | 1011.2 |
| 20260503050626 | 42 | 279 | 1.0 | 7.0 | 0.00 | 0.00 | 0.00 | 70 | 1011.1 |
| 20260503045726 | 42 | 278 | 3.0 | 10.0 | 0.00 | 0.00 | 0.00 | 69 | 1011.0 |
| 20260503044826 | 43 | 275 | 2.0 | 11.0 | 0.00 | 0.00 | 0.00 | 69 | 1010.8 |
| 20260503043926 | 43 | 278 | 2.0 | 10.0 | 0.00 | 0.00 | 0.00 | 66 | 1010.6 |
| 20260503043026 | 43 | 281 | 2.0 | 13.0 | 0.00 | 0.00 | 0.00 | 66 | 1010.5 |
| 20260503042126 | 44 | 269 | 2.0 | 7.0 | 0.00 | 0.00 | 0.00 | 65 | 1010.4 |
| 20260503041226 | 44 | 259 | 2.0 | 11.0 | 0.00 | 0.00 | 0.00 | 65 | 1010.3 |
| 20260503040326 | 44 | 264 | 2.0 | 10.0 | 0.00 | 0.00 | 0.00 | 64 | 1010.2 |
| 20260503035426 | 45 | 252 | 2.0 | 10.0 | 0.00 | 0.00 | 0.00 | 63 | 1010.1 |
| 20260503034526 | 46 | 257 | 2.0 | 13.0 | 0.00 | 0.00 | 0.00 | 63 | 1010.0 |
| 20260503033626 | 46 | 267 | 3.0 | 12.0 | 0.00 | 0.00 | 0.00 | 61 | 1009.8 |
| 20260503032726 | 47 | 277 | 1.0 | 9.0 | 0.00 | 0.00 | 0.00 | 60 | 1009.5 |
| 20260503030926 | 48 | 258 | 2.0 | 11.0 | 0.00 | 0.00 | 0.00 | 57 | 1009.3 |
| 20260503025126 | 48 | 264 | 3.0 | 11.0 | 0.00 | 0.00 | 0.00 | 59 | 1008.9 |
| 20260503024226 | 48 | 275 | 2.0 | 10.0 | 0.00 | 0.00 | 0.00 | 58 | 1008.8 |
| 20260503022426 | 49 | 266 | 3.0 | 13.0 | 0.00 | 0.00 | 0.00 | 57 | 1008.6 |
| 20260503021526 | 49 | 261 | 4.0 | 13.0 | 0.00 | 0.00 | 0.00 | 55 | 1008.4 |
| 20260503020626 | 49 | 256 | 4.0 | 18.0 | 0.00 | 0.00 | 0.00 | 55 | 1008.2 |
| 20260503015726 | 50 | 273 | 4.0 | 17.0 | 0.00 | 0.00 | 0.00 | 55 | 1008.1 |
| 20260503013926 | 52 | 243 | 7.0 | 22.0 | 0.00 | 0.00 | 0.00 | 49 | 1007.3 |
| 20260503013026 | 52 | 234 | 7.0 | 17.0 | 0.00 | 0.00 | 0.00 | 49 | 1007.3 |
| 20260503012126 | 51 | 237 | 7.0 | 19.0 | 0.00 | 0.00 | 0.00 | 49 | 1007.2 |
| 20260503011226 | 51 | 234 | 7.0 | 19.0 | 0.00 | 0.00 | 0.00 | 47 | 1007.1 |
| 20260503005426 | 52 | 242 | 4.0 | 18.0 | 0.00 | 0.00 | 0.00 | 45 | 1006.8 |
| 20260503004526 | 52 | 251 | 7.0 | 22.0 | 0.00 | 0.00 | 0.00 | 43 | 1006.7 |
| 20260503003626 | 52 | 248 | 8.0 | 19.0 | 0.00 | 0.00 | 0.00 | 44 | 1006.6 |